Weather History for Manteo, NC

Change the Weather History Date:

Friday, August 23, 2013

  Actual Average Record
Temperature  
Mean Temperature 78 °F -  
Max Temperature 84 °F 82 °F 97 °F (1968)
Min Temperature 72 °F 72 °F 62 °F (1969)
Cooling Degree Days 13    
Growing Degree Days 28 (Base 50)    
Moisture  
Dew Point 71 °F    
Average Humidity 84    
Maximum Humidity 95    
Minimum Humidity 65    
Precipitation  
Precipitation 0.02 in - - ()
Sea Level Pressure  
Sea Level Pressure 29.97 in    
Wind  
Wind Speed 7 mph (WNW)    
Max Wind Speed 13 mph    
Max Gust Speed 16 mph    
Visibility 10 miles    
Events Rain    
Averages and records for this station are not official NWS values.
T = Trace of Precipitation, MM = Missing Value Source: NWS Daily Summary

Daily Weather History Graph

Daily Weather History Graph

Search for Another Location

Airport:

Trip Planner

Search our weather history database for the weather conditions in past years. The results will help you decide how hot, cold, wet, or windy it might be!

Date:

Astronomy

Aug. 23, 2013 Rise Set
Actual Time 6:27 AM EDT 7:42 PM EDT
Civil Twilight 6:01 AM EDT 8:08 PM EDT
Nautical Twilight 5:29 AM EDT 8:40 PM EDT
Astronomical Twilight 4:56 AM EDT 9:13 PM EDT
Moon 9:08 PM EDT (8/23) 9:12 AM EDT (8/23)
Length of Visible Light 14h 07m
Length of Day
13h 14m
Waning Gibbous, 91% of the Moon is Illuminated
Aug 23
Waning Gibbous
Aug 28
Last Quarter
Sep 5
New
Sep 12
First Quarter
Sep 19
Full

Hourly Weather History & Observations

Time (EDT) Temp. Heat Index Dew Point Humidity Pressure Visibility Wind Dir Wind Speed Gust Speed Precip Events Conditions
12:15 AM 78.1 °F - 73.4 °F 85% 29.99 in 10.0 mi West 10.4 mph - N/A   Clear
12:35 AM 77.9 °F - 72.9 °F 84% 29.99 in 10.0 mi West 6.9 mph - N/A   Clear
12:55 AM 77.4 °F - 72.7 °F 85% 29.98 in 10.0 mi WNW 6.9 mph - N/A   Clear
1:15 AM 77.0 °F - 72.0 °F 84% 29.98 in 10.0 mi West 6.9 mph - N/A   Clear
1:35 AM 77.0 °F - 71.8 °F 84% 29.98 in 10.0 mi WNW 6.9 mph - N/A   Clear
1:55 AM 76.5 °F - 71.8 °F 85% 29.98 in 10.0 mi NW 4.6 mph - N/A   Clear
2:15 AM 76.3 °F - 72.0 °F 86% 29.97 in 10.0 mi West 4.6 mph - N/A   Clear
2:35 AM 75.9 °F - 72.0 °F 87% 29.97 in 10.0 mi West 4.6 mph - N/A   Clear
2:55 AM 75.2 °F - 71.6 °F 89% 29.96 in 10.0 mi WNW 5.8 mph - N/A   Clear
3:15 AM 74.7 °F - 71.1 °F 88% 29.96 in 10.0 mi West 5.8 mph - N/A   Clear
3:35 AM 74.5 °F - 70.7 °F 88% 29.96 in 10.0 mi West 8.1 mph - N/A   Clear
3:55 AM 73.9 °F - 70.3 °F 88% 29.96 in 10.0 mi WNW 6.9 mph - N/A   Clear
4:15 AM 73.9 °F - 70.2 °F 88% 29.95 in 10.0 mi WNW 5.8 mph - N/A   Scattered Clouds
4:35 AM 73.9 °F - 70.2 °F 88% 29.95 in 10.0 mi West 5.8 mph - N/A   Scattered Clouds
4:55 AM 73.9 °F - 70.3 °F 88% 29.95 in 10.0 mi West 5.8 mph - N/A   Scattered Clouds
5:15 AM 73.6 °F - 70.3 °F 90% 29.96 in 10.0 mi West 8.1 mph - N/A   Scattered Clouds
5:35 AM 73.4 °F - 70.2 °F 90% 29.95 in 10.0 mi West 6.9 mph - N/A   Clear
5:55 AM 73.4 °F - 70.0 °F 89% 29.96 in 10.0 mi West 5.8 mph - N/A   Clear
6:15 AM 73.4 °F - 69.8 °F 88% 29.96 in 10.0 mi WNW 4.6 mph - N/A   Clear
6:35 AM 73.0 °F - 69.3 °F 88% 29.97 in 10.0 mi WNW 5.8 mph - N/A   Clear
6:55 AM 73.0 °F - 69.8 °F 90% 29.97 in 10.0 mi WNW 5.8 mph - N/A   Clear
7:15 AM 73.6 °F - 70.7 °F 91% 29.97 in 10.0 mi NW 4.6 mph - N/A   Clear
7:35 AM 74.1 °F - 70.7 °F 89% 29.98 in 10.0 mi WNW 4.6 mph - N/A   Scattered Clouds
7:55 AM 75.0 °F - 70.7 °F 86% 29.98 in 10.0 mi WNW 4.6 mph - N/A   Scattered Clouds
8:15 AM 75.7 °F - 70.9 °F 85% 29.98 in 10.0 mi WNW 5.8 mph - N/A   Clear
8:35 AM 76.3 °F - 71.2 °F 84% 29.98 in 10.0 mi West 4.6 mph - N/A   Clear
8:55 AM 77.0 °F - 71.8 °F 84% 29.98 in 10.0 mi West 5.8 mph - N/A   Clear
9:15 AM 77.4 °F - 72.0 °F 83% 29.98 in 10.0 mi West 5.8 mph - N/A   Clear
9:35 AM 77.7 °F - 72.3 °F 83% 29.98 in 10.0 mi WNW 5.8 mph - N/A   Clear
9:55 AM 78.4 °F - 72.9 °F 83% 29.97 in 10.0 mi West 6.9 mph - N/A   Clear
10:15 AM 79.7 °F - 72.1 °F 78% 29.97 in 10.0 mi NW 8.1 mph - N/A   Clear
10:35 AM 79.3 °F - 72.5 °F 79% 29.97 in 10.0 mi NW 5.8 mph - N/A   Clear
10:55 AM 80.1 °F 84.2 °F 72.9 °F 79% 29.98 in 10.0 mi NNW 4.6 mph - N/A   Clear
11:15 AM 80.1 °F 84.2 °F 73.0 °F 79% 29.98 in 10.0 mi West 5.8 mph - N/A   Clear
11:35 AM 79.7 °F - 72.3 °F 78% 29.98 in 10.0 mi West 5.8 mph - N/A   Clear
11:55 AM 81.9 °F 86.6 °F 72.0 °F 72% 29.98 in 10.0 mi Calm Calm - N/A   Clear
12:15 PM 82.9 °F 88.0 °F 71.8 °F 69% 29.97 in 10.0 mi West 5.8 mph - N/A   Clear
12:35 PM 83.7 °F 89.4 °F 72.5 °F 69% 29.97 in 10.0 mi SW 3.5 mph - N/A   Clear
12:55 PM 84.4 °F 90.3 °F 72.3 °F 67% 29.96 in 10.0 mi SW 3.5 mph - N/A   Clear
1:15 PM 84.0 °F 90.2 °F 72.9 °F 69% 29.96 in 10.0 mi ENE 4.6 mph - N/A   Scattered Clouds
1:35 PM 83.7 °F 89.4 °F 72.3 °F 69% 29.96 in 10.0 mi WSW 5.8 mph - N/A   Clear
1:55 PM 83.7 °F 89.7 °F 72.9 °F 70% 29.96 in 10.0 mi SW 6.9 mph - N/A   Clear
2:15 PM 82.8 °F 89.0 °F 73.8 °F 74% 29.95 in 10.0 mi SW 5.8 mph - N/A   Clear
2:35 PM 83.3 °F 89.9 °F 73.8 °F 73% 29.94 in 10.0 mi SW 4.6 mph - N/A   Scattered Clouds
2:55 PM 83.7 °F 88.9 °F 71.8 °F 67% 29.94 in 10.0 mi Calm Calm - N/A   Mostly Cloudy
3:15 PM 81.9 °F 85.6 °F 70.0 °F 67% 29.94 in 10.0 mi SSW 9.2 mph - N/A   Overcast
3:35 PM 79.7 °F - 67.1 °F 65% 29.93 in 10.0 mi South 10.4 mph - N/A   Overcast
3:55 PM 81.5 °F 85.5 °F 70.9 °F 70% 29.92 in 10.0 mi SSW 9.2 mph - N/A   Scattered Clouds
4:15 PM 79.7 °F - 71.1 °F 75% 29.93 in 10.0 mi SSW 6.9 mph - N/A   Scattered Clouds
4:35 PM 79.7 °F - 68.9 °F 69% 29.93 in 10.0 mi SW 4.6 mph - N/A   Clear
4:55 PM 78.1 °F - 69.1 °F 74% 29.93 in 10.0 mi SSW 5.8 mph - N/A   Clear
5:15 PM 77.0 °F - 69.4 °F 77% 29.94 in 10.0 mi WSW 3.5 mph - N/A   Clear
5:35 PM 76.5 °F - 69.8 °F 80% 29.96 in 10.0 mi Calm Calm - N/A   Clear
5:55 PM 75.4 °F - 69.6 °F 82% 29.96 in 10.0 mi NNE 3.5 mph - N/A Rain Light Rain
6:15 PM 75.4 °F - 73.0 °F 92% 29.96 in 7.0 mi ENE 3.5 mph - N/A Rain Light Rain
6:35 PM 75.6 °F - 73.2 °F 92% 29.98 in 7.0 mi Calm Calm - N/A   Drizzle
6:55 PM 74.8 °F - 73.4 °F 95% 29.97 in 5.0 mi NE 8.1 mph - N/A Rain Light Rain
7:15 PM 74.3 °F - 72.7 °F 95% 29.96 in 7.0 mi NE 8.1 mph - N/A Rain Rain
7:35 PM 74.3 °F - 72.7 °F 95% 29.98 in 7.0 mi ENE 8.1 mph - N/A Rain Light Rain
7:55 PM 73.6 °F - 72.0 °F 95% 29.98 in 7.0 mi ENE 5.8 mph - N/A Rain Light Rain
8:15 PM 73.4 °F - 71.6 °F 94% 29.99 in 7.0 mi ENE 6.9 mph - N/A Rain Light Rain
8:35 PM 72.9 °F - 70.5 °F 92% 29.99 in 7.0 mi East 5.8 mph - N/A Rain Rain
8:55 PM 72.9 °F - 71.1 °F 94% 29.99 in 7.0 mi East 8.1 mph - N/A Rain Light Rain
9:15 PM 72.9 °F - 70.7 °F 93% 29.99 in 10.0 mi East 5.8 mph - N/A Rain Light Rain
9:35 PM 73.0 °F - 69.4 °F 88% 30.00 in 10.0 mi East 8.1 mph - 0.01 in   Scattered Clouds
9:55 PM 73.4 °F - 70.9 °F 92% 30.01 in 10.0 mi ENE 8.1 mph - 0.01 in   Clear
10:15 PM 73.9 °F - 72.1 °F 94% 30.00 in 10.0 mi East 8.1 mph - N/A   Mostly Cloudy
10:35 PM 74.3 °F - 71.6 °F 91% 29.99 in 10.0 mi East 10.4 mph - N/A   Mostly Cloudy
10:55 PM 74.3 °F - 71.8 °F 92% 29.99 in 10.0 mi East 12.7 mph 16.1 mph N/A   Mostly Cloudy
11:15 PM 74.3 °F - 71.6 °F 91% 30.00 in 10.0 mi East 11.5 mph - N/A   Overcast
11:35 PM 74.3 °F - 71.8 °F 92% 30.01 in 10.0 mi ENE 10.4 mph - 0.01 in   Overcast
11:55 PM 74.5 °F - 71.2 °F 90% 30.02 in 10.0 mi ENE 10.4 mph - 0.01 in   Overcast